Location: Keewatin
(47.4004°N, 93.0827°W)
Time: 09:00:48
(UTC+00:00)

KKS-1 - Pass Details

Date: 25 February 2020
Orbit: 637 x 650 km, 98.3° (Epoch: 07 April)

Event Time Altitude Azimuth Distance (km) Brightness Sun altitude
Rises 02:05:35 0° 15° (NNE) 2,952 ? -23.7°
Reaches altitude 10° 02:07:48 10° 17° (NNE) 2,038 ? -24.1°
Enters shadow 02:08:02 11° 18° (NNE) 1,944 ? -24.1°
